Appleton, MN

11:02 PM CST on February 21, 2017 (GMT -0600)
Appleton Municipal

Weather History for KAQP - August, 2013

Change the Weather History Date:

Saturday, August 24, 2013

  Actual Average Record
Temperature  
Mean Temperature 84 °F -  
Max Temperature 95 °F 77 °F 95 °F (2013)
Min Temperature 73 °F 55 °F 35 °F (2002)
Cooling Degree Days 19    
Growing Degree Days 34 (Base 50)    
Moisture  
Dew Point 70 °F    
Average Humidity 68    
Maximum Humidity 88    
Minimum Humidity 43    
Precipitation  
Precipitation 0.00 in - - ()
Sea Level Pressure  
Sea Level Pressure 29.89 in    
Wind  
Wind Speed 11 mph (SSE)    
Max Wind Speed 21 mph    
Max Gust Speed 30 mph    
Visibility 9 miles    
Events Thunderstorm    
Averages and records for this station are not official NWS values.
T = Trace of Precipitation, MM = Missing Value Source: NWS Daily Summary

Daily Weather History Graph

Daily Weather History Graph

Search for Another Location

Airport or City:

Trip Planner

Search our weather history database for the weather conditions in past years. The results will help you decide how hot, cold, wet, or windy it might be!

Date:

Astronomy

Aug. 24, 2013 Rise Set
Actual Time 6:36 AM CDT 8:15 PM CDT
Civil Twilight 6:05 AM CDT 8:46 PM CDT
Nautical Twilight 5:27 AM CDT 9:23 PM CDT
Astronomical Twilight 4:46 AM CDT 10:04 PM CDT
Moon 9:54 PM CDT (8/24) 10:51 AM CDT (8/24)
Length of Visible Light 14h 40m
Length of Day
13h 38m
Waning Gibbous, 84% of the Moon is Illuminated
Aug 24
Waning Gibbous
Aug 28
Last Quarter
Sep 5
New
Sep 12
First Quarter
Sep 19
Full

Hourly Weather History & Observations

Time (CDT) Temp. Heat Index Dew Point Humidity Pressure Visibility Wind Dir Wind Speed Gust Speed Precip Events Conditions
12:13 AM 75.2 °F - 69.8 °F 83% 29.96 in 10.0 mi SSE 11.5 mph 19.6 mph N/A   Clear
12:34 AM 75.2 °F - 69.8 °F 83% 29.96 in 10.0 mi SSE 9.2 mph 17.3 mph N/A   Clear
12:53 AM 75.2 °F - 69.8 °F 83% 29.96 in 10.0 mi SSE 10.4 mph 16.1 mph N/A   Clear
1:13 AM 73.4 °F - 69.8 °F 88% 29.96 in 10.0 mi SSE 10.4 mph 16.1 mph N/A   Clear
1:33 AM 73.4 °F - 69.8 °F 88% 29.96 in 10.0 mi SSE 11.5 mph - N/A   Clear
1:54 AM 73.4 °F - 69.8 °F 88% 29.96 in 10.0 mi SSE 10.4 mph - N/A   Clear
2:13 AM 73.4 °F - 69.8 °F 88% 29.96 in 10.0 mi SSE 9.2 mph - N/A   Clear
2:33 AM 73.4 °F - 69.8 °F 88% 29.96 in 7.0 mi SSE 8.1 mph - N/A   Clear
2:53 AM 73.4 °F - 69.8 °F 88% 29.96 in 7.0 mi SSE 9.2 mph - N/A   Clear
3:14 AM 73.4 °F - 69.8 °F 88% 29.95 in 7.0 mi SSE 10.4 mph - N/A   Clear
3:34 AM 73.4 °F - 69.8 °F 88% 29.95 in 7.0 mi SSE 10.4 mph 17.3 mph N/A   Clear
3:53 AM 73.4 °F - 69.8 °F 88% 29.95 in 7.0 mi SSE 10.4 mph - N/A   Clear
4:13 AM 73.4 °F - 69.8 °F 88% 29.95 in 7.0 mi SE 10.4 mph - N/A   Clear
4:33 AM 73.4 °F - 69.8 °F 88% 29.95 in 7.0 mi SE 9.2 mph - N/A   Clear
4:54 AM 73.4 °F - 69.8 °F 88% 29.94 in 7.0 mi SSE 8.1 mph - N/A   Clear
5:13 AM 73.4 °F - 69.8 °F 88% 29.94 in 7.0 mi SE 9.2 mph - N/A   Clear
5:33 AM 73.4 °F - 69.8 °F 88% 29.94 in 7.0 mi SSE 8.1 mph - N/A   Clear
5:53 AM 73.4 °F - 69.8 °F 88% 29.94 in 7.0 mi SE 9.2 mph - N/A   Clear
6:13 AM 73.4 °F - 69.8 °F 88% 29.94 in 7.0 mi SSE 8.1 mph - N/A   Scattered Clouds
6:33 AM 73.4 °F - 69.8 °F 88% 29.93 in 7.0 mi SE 10.4 mph - N/A   Scattered Clouds
6:53 AM 73.4 °F - 69.8 °F 88% 29.93 in 7.0 mi SE 12.7 mph - N/A   Scattered Clouds
7:14 AM 73.4 °F - 69.8 °F 88% 29.93 in 7.0 mi SE 9.2 mph - N/A   Clear
7:33 AM 73.4 °F - 69.8 °F 88% 29.93 in 7.0 mi SE 10.4 mph 16.1 mph N/A Thunderstorm Clear
7:54 AM 73.4 °F - 69.8 °F 88% 29.93 in 7.0 mi SE 10.4 mph - N/A   Clear
8:14 AM 75.2 °F - 69.8 °F 83% 29.94 in 7.0 mi SE 10.4 mph 16.1 mph N/A   Clear
8:34 AM 77.0 °F - 69.8 °F 78% 29.94 in 10.0 mi SE 9.2 mph 16.1 mph N/A Thunderstorm Clear
8:54 AM 75.2 °F - 69.8 °F 83% 29.94 in 10.0 mi SSE 6.9 mph 10.4 mph N/A   Clear
9:13 AM 77.0 °F - 69.8 °F 78% 29.93 in 10.0 mi SSE 8.1 mph - N/A   Clear
9:33 AM 77.0 °F - 68.0 °F 74% 29.92 in 10.0 mi SSE 11.5 mph 16.1 mph N/A   Clear
9:54 AM 80.6 °F 83.2 °F 68.0 °F 65% 29.91 in 10.0 mi SSE 10.4 mph 16.1 mph N/A   Clear
10:13 AM 82.4 °F 84.6 °F 66.2 °F 58% 29.90 in 10.0 mi SSE 13.8 mph 19.6 mph N/A   Clear
10:33 AM 82.4 °F 84.6 °F 66.2 °F 58% 29.90 in 10.0 mi South 16.1 mph 19.6 mph N/A   Clear
10:54 AM 84.2 °F 86.6 °F 66.2 °F 55% 29.89 in 7.0 mi South 16.1 mph 19.6 mph N/A   Clear
11:14 AM 86.0 °F 88.2 °F 66.2 °F 51% 29.89 in 10.0 mi South 17.3 mph 20.7 mph N/A   Clear
11:33 AM 87.8 °F 90.4 °F 66.2 °F 49% 29.88 in 10.0 mi South 13.8 mph 24.2 mph N/A   Clear
11:53 AM 89.6 °F 91.1 °F 64.4 °F 43% 29.88 in 10.0 mi South 13.8 mph 23.0 mph N/A   Clear
12:13 PM 89.6 °F 92.2 °F 66.2 °F 46% 29.87 in 10.0 mi South 20.7 mph 28.8 mph N/A   Clear
12:33 PM 91.4 °F 94.0 °F 66.2 °F 43% 29.87 in 7.0 mi South 16.1 mph 29.9 mph N/A   Clear
12:53 PM 91.4 °F 94.0 °F 66.2 °F 43% 29.87 in 10.0 mi South 18.4 mph 26.5 mph N/A   Clear
1:13 PM 91.4 °F 94.0 °F 66.2 °F 43% 29.87 in 10.0 mi South 12.7 mph 23.0 mph N/A   Clear
1:33 PM 91.4 °F 94.0 °F 66.2 °F 43% 29.86 in 10.0 mi South 16.1 mph 24.2 mph N/A   Clear
1:53 PM 91.4 °F 94.0 °F 66.2 °F 43% 29.86 in 10.0 mi South 18.4 mph 25.3 mph N/A   Clear
2:13 PM 91.4 °F 94.0 °F 66.2 °F 43% 29.85 in 10.0 mi South 15.0 mph 20.7 mph N/A   Clear
2:33 PM 91.4 °F 95.4 °F 68.0 °F 46% 29.85 in 10.0 mi South 11.5 mph 21.9 mph N/A   Clear
2:53 PM 91.4 °F 94.0 °F 66.2 °F 43% 29.84 in 10.0 mi South 16.1 mph 25.3 mph N/A   Clear
3:13 PM 91.4 °F 94.0 °F 66.2 °F 43% 29.83 in 10.0 mi South 15.0 mph 25.3 mph N/A   Clear
3:33 PM 91.4 °F 95.4 °F 68.0 °F 46% 29.83 in 10.0 mi South 15.0 mph 24.2 mph N/A   Clear
3:54 PM 91.4 °F 95.4 °F 68.0 °F 46% 29.83 in 10.0 mi South 15.0 mph 23.0 mph N/A   Clear
4:13 PM 93.2 °F 98.8 °F 69.8 °F 46% 29.82 in 10.0 mi South 13.8 mph 24.2 mph N/A   Clear
4:33 PM 93.2 °F 98.8 °F 69.8 °F 46% 29.82 in 10.0 mi South 11.5 mph 16.1 mph N/A   Clear
4:53 PM 93.2 °F 98.8 °F 69.8 °F 46% 29.82 in 10.0 mi South 15.0 mph 21.9 mph N/A   Clear
5:13 PM 95.0 °F 101.3 °F 69.8 °F 44% 29.82 in 10.0 mi South 10.4 mph - N/A   Clear
5:33 PM 93.2 °F 98.8 °F 69.8 °F 46% 29.82 in 10.0 mi South 16.1 mph 24.2 mph N/A   Clear
5:53 PM 93.2 °F 98.8 °F 69.8 °F 46% 29.82 in 10.0 mi South 13.8 mph 20.7 mph N/A   Clear
6:13 PM 93.2 °F 100.5 °F 71.6 °F 49% 29.83 in 7.0 mi SSW 13.8 mph 17.3 mph N/A   Clear
6:33 PM 91.4 °F 98.4 °F 71.6 °F 52% 29.82 in 10.0 mi South 10.4 mph - N/A   Clear
6:53 PM 91.4 °F 98.4 °F 71.6 °F 52% 29.82 in 10.0 mi South 11.5 mph 17.3 mph N/A   Clear
7:13 PM 89.6 °F 98.2 °F 73.4 °F 59% 29.82 in 10.0 mi South 9.2 mph - N/A   Clear
7:33 PM 87.8 °F 95.6 °F 73.4 °F 62% 29.83 in 10.0 mi South 10.4 mph - N/A   Clear
7:53 PM 87.8 °F 95.6 °F 73.4 °F 62% 29.83 in 10.0 mi South 10.4 mph - N/A   Clear
8:13 PM 86.0 °F 93.4 °F 73.4 °F 66% 29.83 in 10.0 mi South 9.2 mph - N/A   Clear
8:33 PM 84.2 °F 90.9 °F 73.4 °F 70% 29.83 in 10.0 mi South 10.4 mph - N/A   Clear
8:53 PM 84.2 °F 90.9 °F 73.4 °F 70% 29.85 in 10.0 mi South 11.5 mph 17.3 mph N/A   Clear
9:13 PM 84.2 °F 90.9 °F 73.4 °F 70% 29.85 in 10.0 mi South 8.1 mph 17.3 mph N/A   Clear
9:33 PM 84.2 °F 90.9 °F 73.4 °F 70% 29.86 in 10.0 mi South 11.5 mph 18.4 mph N/A   Clear
9:53 PM 82.4 °F 88.2 °F 73.4 °F 74% 29.86 in 10.0 mi South 12.7 mph 17.3 mph N/A   Clear
10:14 PM 82.4 °F 88.2 °F 73.4 °F 74% 29.86 in 10.0 mi South 11.5 mph - N/A   Clear
10:33 PM 82.4 °F 88.2 °F 73.4 °F 74% 29.87 in 10.0 mi South 8.1 mph - N/A   Clear
10:53 PM 82.4 °F 88.2 °F 73.4 °F 74% 29.87 in 10.0 mi South 12.7 mph 19.6 mph N/A   Clear
11:13 PM 82.4 °F 87.2 °F 71.6 °F 70% 29.87 in 10.0 mi South 9.2 mph 18.4 mph N/A   Clear
11:34 PM 82.4 °F 87.2 °F 71.6 °F 70% 29.87 in 10.0 mi South 12.7 mph 18.4 mph N/A   Clear
11:53 PM 82.4 °F 87.2 °F 71.6 °F 70% 29.88 in 10.0 mi South 10.4 mph 16.1 mph N/A   Clear